ソニア彗星

C/2020 J1 ( SONEAR )

English version
Home page
Updated on June 29, 2020

---------------------------------------------------------------------

・ プロフィール

発見日 2020年5月1日
発見光度 17.0等
発見者 Southern Observatory for Near Earth Research (SONEAR) at Oliveira, Brazil

・ 軌道要素

Epoch 2021 Apr. 16.0 TT = JDT 2459320.5
T 2021 Apr. 18.62760 TT                                 Rudenko
q   3.3552141            (2000.0)            P               Q
z  +0.0001040      Peri.  341.75281     -0.47277181     -0.76098727
 +/-0.0001625      Node   226.58510     -0.71296884     +0.03404982
e   0.9996512      Incl.  142.29304     -0.51784385     +0.64787265
From 74 observations 2020 May 1-June 16, mean residual 0".3.

・ 星図

・ 光度変化

        m1 = 6.5 + 5 logΔ + 10.0 log r

---------------------------------------------------------------------

軌道要素はM.P.E.C. 2020-M114に掲載されたものです。
星図はステラナビゲータ Ver.10 (アストロアーツ) で作成したものです。
光度グラフはComet for Windowsで作成したものです。

---------------------------------------------------------------------

Copyright(C) Seiichi Yoshida (comet@aerith.net). All rights reserved.